www.pogodaiklimat.ru

Погода и климат >> Архив погоды >> Бангладеш >> Комилла


ПОГОДА в Комилле

  • Прогноз погоды в Комилле
  • Монитор погоды в Комилле

АРХИВ ПОГОДЫ в Комилле

Время (UTC), дата Ветер
(напр.,м/с)
 
Видим.   Явления Облачность Т
(С)
Тd
(С)
f
(%)
Тe
(С)
Тes
(С)
Комфортность P
(гПа)
Po
(гПа)
Тmin
(С)
Tmax
(С)
R
(мм)
R24
(мм)
S
(см)
15 15.09 ЮЗ 1 6000 м 5/3 540 м
[Sc Ac trans]
+29.5 +27.0 86 +46 +46 опасность
перегрева
1005.8 1005.0
18 15.09 штиль 0 6000 м 6/3 540 м
[Sc Ac trans]
+28.5 +27.0 92 +45 +45 опасность
перегрева
1006.5 1005.7
00 16.09 штиль 0 4000 м мгла 10/5 500 м
[Sc As op]
+27.4 +26.0 92 +41 +41 опасность
перегрева
1006.2 1005.3
03 16.09 ЮЗ 1 5000 м 8/5 480 м
[Sc As op]
+29.6 +26.0 81 +44 +47 опасность
перегрева
1007.2 1006.3 +27.3
09 16.09 Ю 2 6000 м гроза без осадков 8/6 420 м
[Cb calv As op]
+30.6 +25.0 72 +44 +46 опасность
перегрева
1003.4 1002.6
12 16.09 штиль 0 6000 м {гроза, дождь} 8/6 480 м
[Cu Sc As op]
+29.1 +27.0 88 +46 +46 опасность
перегрева
1003.6 1002.8 +33.4 0.0
15 16.09 штиль 0 6000 м 6/3 480 м
[Sc Ac trans]
+28.0 +26.0 89 +42 +42 опасность
перегрева
1006.5 1005.7
18 16.09 штиль 0 5000 м 6/3 480 м
[Sc Ac trans]
+27.7 +27.0 96 +44 +44 опасность
перегрева
1006.7 1005.9
00 17.09 штиль 0 4000 м мгла 9/5 480 м
[Sc As op]
+27.2 +26.0 93 +41 +41 опасность
перегрева
1006.2 1005.4
03 17.09 штиль 0 6000 м 6/3 480 м
[Sc Ac trans]
+30.3 +25.0 73 +43 +50 опасность
перегрева
1008.8 1008.0
06 17.09 штиль 0 6000 м 6/5 480 м
[Sc diur, vesp Ci sp]
+32.8 +25.0 64 +47 +59 опасность
перегрева
1007.8 1007.0
09 17.09 ЮЗ 1 6000 м 6/6 480 м
[Sc diur, vesp Ac trans]
+34.4 +27.0 65 +52 +56 опасность
перегрева
1005.6 1004.7
12 17.09 ЮЗ 1 6000 м 6/6 480 м
[Sc diur, vesp Ac trans]
+32.2 +27.0 74 +50 +50 опасность
перегрева
1005.9 1005.0 +34.7
15 17.09 штиль 0 6000 м 1/1 540 м
[Sc]
+29.8 +27.0 85 +47 +47 опасность
перегрева
1007.8 1006.9
18 17.09 штиль 0 6000 м 3/0
[Ac trans]
+28.6 +27.0 91 +45 +45 опасность
перегрева
1008.1 1007.2
00 18.09 штиль 0 4000 м мгла 9/5 480 м
[Sc As op]
+27.9 +27.0 95 +44 +44 опасность
перегрева
1009.7 1008.8
03 18.09 штиль 0 6000 м 6/3 480 м
[Sc Ac trans]
+29.5 +24.0 72 +41 +48 опасность
перегрева
1011.3 1010.5 +25.8
06 18.09 штиль 0 6000 м 8/4 540 м
[Cu Sc Ac trans]
+32.0 +22.0 56 +41 +50 опасность
перегрева
1010.2 1009.3
09 18.09 штиль 0 6000 м 5/3 540 м
[Sc diur, vesp Ac trans Cc]
+33.4 +24.0 58 +45 +53 опасность
перегрева
1007.9 1007.0
12 18.09 штиль 0 6000 м 3/1 540 м
[Sc Ac trans]
+30.6 +25.0 72 +44 +44 опасность
перегрева
1007.8 1006.9 +33.8
15 18.09 штиль 0 5000 м 6/4 480 м
[Sc Ac trans]
+28.8 +26.0 85 +43 +43 опасность
перегрева
1009.9 1009.0
18 18.09 штиль 0 5000 м 6/4 540 м
[Sc Ac trans]
+28.2 +26.0 88 +42 +42 опасность
перегрева
1010.5 1009.6
21 18.09 штиль 0 5000 м 8/5 480 м
[Sc Ac trans]
+27.8 +27.0 95 +44 +44 опасность
перегрева
1010.6 1009.8
00 19.09 штиль 0 4000 м мгла 6/4 540 м
[Sc Ac trans]
+27.0 +26.0 94 +40 +40 очень
душно
1010.7 1009.9
03 19.09 штиль 0 5000 м 3/3 540 м
[Sc]
+31.2 +26.0 74 +47 +56 опасность
перегрева
1011.1 1010.3 +26.6
06 19.09 С 1 6000 м 6/5 540 м
[Sc diur, vesp Ac trans]
+33.0 +24.0 59 +45 +54 опасность
перегрева
1009.7 1008.9
09 19.09 Ю 1 6000 м 4/3 750 м
[Cu med, cong Ci fib]
+34.5 +22.0 48 +43 +50 опасность
перегрева
1006.7 1005.8
12 19.09 штиль 0 6000 м 4/3 750 м
[Cu med, cong Ci fib]
+32.5 +25.0 65 +46 +46 опасность
перегрева
1006.9 1006.0 +35.0
15 19.09 штиль 0 5000 м ясно +30.0 +28.0 89 +50 +50 опасность
перегрева
1009.4 1008.6
18 19.09 штиль 0 4000 м 10/1 480 м
[Sc As trans]
+28.9 +27.0 90 +46 +46 опасность
перегрева
1009.0 1008.1
00 20.09 штиль 0 5000 м 5/0 300 м
[As trans Ci sp]
+26.8 +26.0 95 +40 +40 очень
душно
1009.2 1008.3
03 20.09 штиль 0 6000 м 5/0
[As trans Ci sp]
+30.2 +25.0 74 +44 +53 опасность
перегрева
1010.0 1009.1 +26.6
06 20.09 штиль 0 6000 м 6/5 540 м
[Sc diur, vesp Ac trans]
+33.5 +26.0 65 +49 +60 опасность
перегрева
1008.3 1007.5
09 20.09 СВ 2 6000 м 5/4 540 м
[Cu Sc Ac trans]
+34.2 +23.0 52 +44 +49 опасность
перегрева
1005.0 1004.1
12 20.09 штиль 0 6000 м 5/1 750 м
[Cu med, cong Ac lent Ci fib]
+31.7 +28.0 81 +52 +52 опасность
перегрева
1005.5 1004.6 +35.2
15 20.09 штиль 0 6000 м 1/1 540 м
[Sc]
+29.9 +28.0 90 +50 +50 опасность
перегрева
1008.3 1007.4
18 20.09 штиль 0 5000 м 1/1 540 м
[Sc]
+29.0 +27.0 89 +46 +46 опасность
перегрева
1008.2 1007.3
00 21.09 штиль 0 4000 м мгла 3/1 480 м
[Sc Ac trans]
+28.2 +27.0 93 +44 +44 опасность
перегрева
1006.9 1006.0
03 21.09 штиль 0 6000 м 5/3 750 м
[Cu med, cong Ac lent]
+32.2 +26.0 70 +48 +55 опасность
перегрева
1009.0 1008.1 +28.0
06 21.09 СЗ 2 6000 м гроза без осадков 9/6 480 м
[Cb calv As op]
+32.7 +25.0 64 +46 +50 опасность
перегрева
1007.3 1006.5
09 21.09 штиль 0 6000 м {гроза, дождь} 9/6 420 м
[Sc As op]
+25.8 +25.8 100 +38 +40 очень
душно
1005.0 1004.1
12 21.09 штиль 0 6000 м {гроза, дождь} 8/6 480 м
[Cu Sc Ac trans]
+27.5 +26.0 92 +41 +41 опасность
перегрева
1006.5 1005.7 +33.6 25
15 21.09 штиль 0 6000 м 6/5 480 м
[Cu Sc Ac trans]
+27.0 +26.0 94 +40 +40 очень
душно
1008.9 1008.0
18 21.09 штиль 0 6000 м 6/5 480 м
[Cu Sc Ac trans]
+26.3 +25.0 93 +38 +38 очень
душно
1009.1 1008.3
00 22.09 ЮЗ 1 6000 м 8/5 480 м
[Sc Ac trans]
+25.8 +25.0 95 +37 +37 очень
душно
1009.6 1008.8
03 22.09 штиль 0 6000 м 6/3 540 м
[Sc Ac lent]
+30.4 +25.0 73 +44 +50 опасность
перегрева
1010.9 1010.1 +24.4
06 22.09 ЮЗ 1 6000 м 6/5 540 м
[Cu Sc Ac lent]
+33.0 +26.0 67 +49 +58 опасность
перегрева
1009.1 1008.3
09 22.09 штиль 0 6000 м 9/6 480 м
[Cu Sc Ac trans Ci fib]
+33.0 +25.0 63 +47 +50 опасность
перегрева
1006.6 1005.8
12 22.09 СВ 1 5000 м {гроза, дождь} 9/5 480 м
[Sc As op]
+28.2 +25.0 83 +41 +41 опасность
перегрева
1008.0 1007.1 +33.4 1

 

Местоположение метеостанции Комилла (Бангладеш): широта 23.43 долгота 91.18 высота над уровнем моря 9 м.

В архиве по умолчанию представлена погода в Комилле за последнюю неделю. Архивные данные за месяц целиком и за предыдущие месяцы, начиная с января 2011 года, Вы можете получить, выбрав интересующий диапазон дат из раскрывающегося списка и нажав кнопку "Ввод!".


*Определитесь, кто Вы:
робот инопланетянин человек

Внимание! Время в таблицах - всемирное. Для получения местного времени необходимо прибавить поправку, которая равна 6.5 ч.

Смотрите также архив погоды в соседних городах и на ближайших метеорологических станциях:

Погода в Агартале (Трипура, Индия) (51 км)
Погода в Фени (Бангладеш) (51 км)
Погода в Чандпуре (Бангладеш) (52 км)
Погода в Маиидиcурте (Бангладеш) (63 км)
Погода в Дакке (Бангладеш) (90 км)
Погода в Бхоле (Бангладеш) (100 км)
Погода в Никли (Бангладеш) (103 км)
Погода в Мадарипуре (Бангладеш) (106 км)
Погода в Ситакунду (Бангладеш) (109 км)
Погода в Сандвипе (Бангладеш) (109 км)

Пояснения к столбцам:

Ветер - указаны скорость ветра в м/с - средняя за 10 мин, порывы в срок и между сроками (в фигурных скобках) и направление, откуда дует ветер: С - северный, СВ - северо-восточный, В - восточный, ЮВ - юго-восточный, Ю - южный, ЮЗ - юго-западный, З - западный, СЗ - северо-западный.
Видимость - горизонтальная дальность видимости в метрах или километрах. При видимости от 1 до 10 км при отсутствии осадков обычно наблюдается дымка, при ухудшении видимости до 1 км и менее - туман. В сухую погоду видимость может ухудшаться дымом, пылью или мглою.
Явления - указаны атмосферные явления, наблюдавшиеся в срок или в последний час перед сроком; фигурными скобками обозначены явления, наблюдавшиеся между сроками (за 1-3 часа до срока); квадратными скобками обозначены град или гололедные отложения с указанием их диаметра в мм.
Облачность - указаны через наклонную черту общая и нижняя облачность в баллах и высота нижней границы облаков в метрах; квадратными скобками обозначены формы облаков: Ci - перистые, Cs - перисто-слоистые, Cc - перисто-кучевые, Ac - высококучевые, As - высокослоистые, Sc - слоисто-кучевые, Ns - слоисто-дождевые, Cu - кучевые, Cb - кучево-дождевые. Подробнее классификацию облаков см. в Атласе облаков (PDF).
T - Температура воздуха - температура, измеренная на высоте 2 м над землей.
Td - Температура точки росы - температура, при понижении до которой содержащийся в воздухе водяной пар достигнет насыщения.
f - Относительная влажность воздуха - влажноcть воздуха, измеренная на высоте 2 м над землей.
Te - Эффективная температура - температура, которую ощущает одетый по сезону человек в тени. Характеристика душности погоды. При расчете учитывается влияние влажности воздуха и скорости ветра на теплоощущения человека.
Tes - Эффективная температура на солнце - температура, которую ощущает человек, с поправкой на солнечный нагрев. Характеристика знойности погоды. Зависит от высоты солнца над горизонтом, облачности и скорости ветра. Ночью, в пасмурную погоду, а также при ветре 12 м/с и более поправка равна нулю.
P - Атмосферное давление - приведенное к уровню моря атмосферное давление.
Po - Атмосферное давление - измеренное на уровне метеостанции атмосферное давление.
Tmin - Минимальная температура - минимум температуры воздуха на высоте 2 м над землей.
Tmax - Максимальная температура - максимум температуры воздуха на высоте 2 м над землей.
R - Количество осадков - Количество выпавших осадков за период времени, мм. При наведении курсора мыши на число - период времени, за который выпало указанное количество осадков.
R24 - Количество осадков - Количество выпавших осадков за 24 часа, мм.
S - Снежный покров - Высота снежного покрова, см. При наведении курсора мыши на число - состояние снежного покрова и степень покрытия местности в баллах.